Location: Newark
(25.0000°N, 73.5000°E)
Time: 00:21:48
(UTC+00:00)

Tiros 1 despin weight - Pass Details

Date: 10 March 2021
Orbit: 593 x 641 km, 48.2° (Epoch: 15 April)

Event Time Altitude Azimuth Distance (km) Brightness Sun altitude
Rises 21:35:18 0° 330° (NNW) 2,913 - -50.4°
Reaches altitude 10° 21:38:11 10° 348° (NNW) 2,012 - -49.8°
Maximum altitude 21:41:33 20° 34° (NE) 1,486 - -49.1°
Drops below altitude 10° 21:44:57 10° 81° (E) 2,021 - -48.4°
Sets 21:47:50 0° 99° (E) 2,931 - -47.8°
